Location: Geyikbay?r?
(36.8756°N, 30.4583°E)
Time: 07:18:34
(UTC+00:00)

Cosmos 44 Rocket - Pass Details

Date: 05 August 2024
Orbit: 649 x 733 km, 65.1° (Epoch: 10 September)

Event Time Altitude Azimuth Distance (km) Brightness Sun altitude
Rises 17:56:36 0° 213° (SSW) 3,143 6.7 -10.9°
Reaches altitude 10° 17:58:59 10° 216° (SW) 2,220 6.0 -11.3°
Maximum altitude 18:04:03 73° 300° (WNW) 759 3.7 -12.2°
Drops below altitude 10° 18:09:05 10° 26° (NNE) 2,196 6.0 -13.0°
Sets 18:11:26 0° 28° (NNE) 3,106 6.7 -13.4°
